Location: Beetenbrück
(52.8113°N, 9.5946°E)
Time: 16:54:35
(UTC+00:00)

CZ-4B R/B - Pass Details

Date: 14 April 2026
Orbit: 441 x 560 km, 97.8° (Epoch: 9 May)

Event Time Altitude Azimuth Distance (km) Brightness Sun altitude
Exits shadow 19:54:28 24° 118° (ESE) 1,029 3.6 -13.6°
Maximum altitude 19:56:00 37° 68° (ENE) 758 3.3 -13.8°
Drops below altitude 10° 19:59:15 10° 0° (N) 1,627 5.8 -14.1°
Sets 20:01:21 0° 352° (N) 2,492 6.9 -14.4°
